Odiham, United Kingdom

3:10 PM BST on September 20, 2017 (GMT +0100)
Odiham Air Base

Weather History for EGVO - October, 2014

Change the Weather History Date:

Wednesday, October 22, 2014

  Actual Average Record
Temperature  
Mean Temperature 48 °F -  
Max Temperature 55 °F - - ()
Min Temperature 42 °F - - ()
Degree Days  
Heating Degree Days 16    
Moisture  
Dew Point 41 °F    
Average Humidity 68    
Maximum Humidity 82    
Minimum Humidity 44    
Precipitation  
Precipitation 0.00 in - - ()
Sea Level Pressure  
Sea Level Pressure 30.26 in    
Wind  
Wind Speed 12 mph ()    
Max Wind Speed 17 mph    
Max Gust Speed -    
Visibility 11.2 miles    
Events Rain    
T = Trace of Precipitation, MM = Missing Value Source: Averaged Metar Reports

Daily Weather History Graph

Daily Weather History Graph

Search for Another Location

Airport or City:

Trip Planner

Search our weather history database for the weather conditions in past years. The results will help you decide how hot, cold, wet, or windy it might be!

Date:

Astronomy

Oct. 22, 2014 Rise Set
Actual Time 7:38 AM BST 5:56 PM BST
Civil Twilight 7:04 AM BST 6:30 PM BST
Nautical Twilight 6:26 AM BST 7:09 PM BST
Astronomical Twilight 5:47 AM BST 7:47 PM BST
Moon 5:56 AM BST (10/22) 5:22 PM BST (10/22)
Length of Visible Light 11h 25m
Length of Day
10h 17m
Waning Crescent, 2% of the Moon is Illuminated
Oct 22
Waning Crescent
Oct 23
New
Oct 31
First Quarter
Nov 6
Full
Nov 14
Last Quarter

Hourly Weather History & Observations

Time (BST) Temp. Windchill Dew Point Humidity Pressure Visibility Wind Dir Wind Speed Gust Speed Precip Events Conditions
12:00 AM 45 °F - 34 °F 54% 30.19 in 16 mi West 15.0 mph - -  
12:50 AM 44.6 °F 37.2 °F 33.8 °F 66% 30.18 in - West 17.3 mph - N/A   Clear
1:00 AM 45 °F - 33 °F 52% 30.22 in 16 mi West 17.3 mph - -  
1:50 AM 44.6 °F 37.8 °F 35.6 °F 71% 30.21 in - West 15.0 mph - N/A   Clear
2:00 AM 45 °F - 35 °F 57% 30.25 in 16 mi West 15.0 mph - -  
2:50 AM 44.6 °F 38.8 °F 35.6 °F 71% 30.24 in - WSW 11.5 mph - N/A   Clear
3:00 AM 44 °F - 36 °F 64% 30.27 in 16 mi WSW 11.5 mph - -  
3:50 AM 42.8 °F 37.0 °F 37.4 °F 81% 30.24 in - SW 10.4 mph - N/A   Clear
4:00 AM 43 °F - 37 °F 72% 30.27 in 16 mi SW 10.4 mph - -  
4:50 AM 44.6 °F 37.8 °F 37.4 °F 76% 30.24 in - West 15.0 mph - N/A   Clear
5:00 AM 44 °F - 38 °F 71% 30.27 in 19 mi West 15.0 mph - -  
5:50 AM 44.6 °F 37.8 °F 39.2 °F 81% 30.24 in - West 15.0 mph - N/A   Clear
6:00 AM 44 °F - 39 °F 76% 30.27 in 19 mi West 15.0 mph - -  
6:50 AM 44.6 °F 37.8 °F 39.2 °F 81% 30.27 in - West 15.0 mph - N/A   Clear
7:00 AM 45 °F - 39 °F 72% 30.29 in 12 mi West 15.0 mph - -   Scattered Clouds
7:50 AM 46.4 °F 40.1 °F 39.2 °F 76% 30.27 in - WSW 15.0 mph - N/A   Clear
8:00 AM 46 °F - 39 °F 70% 30.30 in 12 mi WSW 15.0 mph - -   Scattered Clouds
8:50 AM 46.4 °F 40.1 °F 39.2 °F 76% 30.30 in - West 15.0 mph - N/A   Clear
9:00 AM 47 °F - 40 °F 67% 30.32 in 10 mi West 15.0 mph - -  
9:50 AM 48.2 °F - 39.2 °F 71% 30.30 in - West 13.8 mph - N/A   Clear
10:00 AM 49 °F - 40 °F 62% 30.32 in 14 mi West 13.8 mph - -   Scattered Clouds
10:50 AM 51.8 °F - 41.0 °F 67% 30.30 in - West 12.7 mph - N/A   Clear
11:00 AM 51 °F - 41 °F 58% 30.32 in 16 mi West 12.7 mph - -   Scattered Clouds
11:50 AM 53.6 °F - 39.2 °F 58% 30.30 in 6.2 mi West 11.5 mph - N/A   Mostly Cloudy
12:00 PM 53 °F - 40 °F 50% 30.31 in 16 mi West 11.5 mph - -   Scattered Clouds
12:50 PM 53.6 °F - 39.2 °F 58% 30.30 in 6.2 mi West 11.5 mph - N/A   Mostly Cloudy
1:00 PM 54 °F - 40 °F 48% 30.30 in 16 mi West 11.5 mph - -   Scattered Clouds
1:50 PM 55.4 °F - 41.0 °F 58% 30.27 in 6.2 mi West 15.0 mph - N/A   Mostly Cloudy
2:00 PM 56 °F - 40 °F 44% 30.30 in 16 mi West 15.0 mph - -   Partly Cloudy
2:50 PM 55.4 °F - 41.0 °F 58% 30.27 in 6.2 mi West 13.8 mph - N/A   Mostly Cloudy
3:00 PM 55 °F - 41 °F 49% 30.29 in 16 mi West 13.8 mph - -   Partly Cloudy
3:50 PM 53.6 °F - 41.0 °F 62% 30.24 in 6.2 mi West 15.0 mph - N/A Rain Light Rain
4:00 PM 54 °F - 41 °F 52% 30.27 in 11 mi West 15.0 mph - - Rain Light Rain
4:50 PM 53.6 °F - 44.6 °F 72% 30.24 in 6.2 mi WSW 10.4 mph - N/A   Overcast
5:00 PM 54 °F - 44 °F 59% 30.27 in 12 mi WSW 10.4 mph - - Rain Light Rain
5:50 PM 53.6 °F - 44.6 °F 72% 30.24 in 6.2 mi WSW 8.1 mph - N/A   Overcast
6:00 PM 53 °F - 45 °F 67% 30.27 in 11 mi WSW 8.1 mph - -   Overcast
6:50 PM 51.8 °F - 46.4 °F 82% 30.24 in 6.2 mi SW 11.5 mph - N/A   Overcast
7:00 PM 52 °F - 46 °F 73% 30.26 in 11 mi SW 11.5 mph - -   Partly Cloudy
7:19 PM 51.8 °F - 46.4 °F 82% 30.24 in 6.2 mi SW 11.5 mph - N/A   Overcast
7:50 PM 51.8 °F - 46.4 °F 82% 30.24 in 6.2 mi SW 11.5 mph - N/A   Mostly Cloudy
8:00 PM 52 °F - 46 °F 71% 30.25 in 11 mi SW 11.5 mph - -   Overcast
8:50 PM 51.8 °F - 46.4 °F 82% 30.24 in 6.2 mi SW 9.2 mph - N/A   Mostly Cloudy
9:00 PM 51 °F - 46 °F 76% 30.25 in 12 mi SW 9.2 mph - -   Overcast
9:50 PM 51.8 °F - 46.4 °F 82% 30.21 in 6.2 mi WSW 8.1 mph - N/A   Mostly Cloudy
10:00 PM 52 °F - 46 °F 71% 30.25 in 12 mi WSW 8.1 mph - -   Overcast
10:50 PM 51.8 °F - 44.6 °F 76% 30.21 in 6.2 mi SW 11.5 mph - N/A   Mostly Cloudy
11:00 PM 52 °F - 45 °F 71% 30.24 in 12 mi SW 11.5 mph - -   Overcast
11:50 PM 51.8 °F - 44.6 °F 76% 30.21 in 6.2 mi SW 11.5 mph - N/A   Overcast